• In Portugal
  • List of Countries
  • For 7 days
  • Water Temperature
  • Satellite Maps
  • Weather Map
  • Weather Widgets
  • user-avatar
    Login

    Hourly Weather Kavasaki

    Today, 18 September, Tuesday

    Time Temperature Precipitation Wind Pressure Humidity
    00:00 +23°C° 0 mm 2 mps 756 mmHg 79%
    01:00 +23°C° 0 mm 2 mps 756 mmHg 80%
    02:00 +23°C° 0 mm 2 mps 756 mmHg 80%
    03:00 +21°C° 0 mm 2 mps 756 mmHg 80%
    04:00 +21°C° 0 mm 2 mps 756 mmHg 80%
    05:00 +21°C° 0 mm 2 mps 756 mmHg 80%
    06:00 +21°C° 0 mm 2 mps 756 mmHg 80%
    07:00 +24°C° 0 mm 1 mps 756 mmHg 72%
    08:00 +26°C° 0 mm 1 mps 756 mmHg 64%
    09:00 +29°C° 0 mm 1 mps 756 mmHg 54%
    10:00 +30°C° 0 mm 1 mps 756 mmHg 48%
    11:00 +31°C° 0 mm 1 mps 756 mmHg 42%
    12:00 +32°C° 0 mm 2 mps 756 mmHg 37%
    13:00 +32°C° 0 mm 2 mps 755 mmHg 37%
    14:00 +32°C° 0 mm 2 mps 755 mmHg 38%
    15:00 +31°C° 0 mm 2 mps 755 mmHg 38%
    16:00 +29°C° 0 mm 2 mps 755 mmHg 43%
    17:00 +28°C° 0 mm 2 mps 755 mmHg 49%
    18:00 +26°C° 0 mm 2 mps 755 mmHg 54%
    19:00 +25°C° 0 mm 2 mps 755 mmHg 56%
    20:00 +24°C° 0 mm 2 mps 755 mmHg 59%
    21:00 +23°C° 0 mm 2 mps 755 mmHg 62%
    22:00 +23°C° 0 mm 2 mps 755 mmHg 62%
    23:00 +21°C° 0 mm 2 mps 755 mmHg 62%

    Tomorrow, 19 September, Wednesday

    Time Temperature Precipitation Wind Pressure Humidity
    00:00 +21°C° 0 mm 2 mps 755 mmHg 62%
    01:00 +20°C° 0 mm 2 mps 755 mmHg 61%
    02:00 +20°C° 0 mm 2 mps 755 mmHg 60%
    03:00 +20°C° 0 mm 2 mps 755 mmHg 60%
    04:00 +20°C° 0 mm 2 mps 755 mmHg 59%
    05:00 +19°C° 0 mm 2 mps 755 mmHg 58%
    06:00 +19°C° 0 mm 2 mps 755 mmHg 57%
    07:00 +22°C° 0 mm 1 mps 755 mmHg 50%
    08:00 +25°C° 0 mm 1 mps 755 mmHg 43%
    09:00 +27°C° 0 mm 1 mps 755 mmHg 36%
    10:00 +28°C° 0 mm 1 mps 755 mmHg 32%
    11:00 +30°C° 0 mm 1 mps 755 mmHg 28%
    12:00 +31°C° 0 mm 1 mps 755 mmHg 24%
    13:00 +31°C° 0 mm 2 mps 754 mmHg 24%
    14:00 +31°C° 0 mm 2 mps 754 mmHg 25%
    15:00 +31°C° 0 mm 2 mps 754 mmHg 26%
    16:00 +29°C° 0 mm 2 mps 754 mmHg 32%
    17:00 +28°C° 0 mm 2 mps 754 mmHg 39%
    18:00 +26°C° 0 mm 1 mps 754 mmHg 45%
    19:00 +25°C° 0 mm 1 mps 755 mmHg 50%
    20:00 +24°C° 0 mm 1 mps 755 mmHg 56%
    21:00 +23°C° 0 mm 1 mps 755 mmHg 61%
    22:00 +23°C° 0 mm 1 mps 755 mmHg 62%
    23:00 +22°C° 0 mm 1 mps 755 mmHg 64%

    Day after tomorrow, 20 September, Thursday

    Time Temperature Precipitation Wind Pressure Humidity
    00:00 +22°C° 0 mm 1 mps 755 mmHg 65%
    01:00 +22°C° 0 mm 1 mps 755 mmHg 65%
    02:00 +22°C° 0 mm 1 mps 755 mmHg 65%
    03:00 +22°C° 0 mm 1 mps 755 mmHg 64%
    04:00 +22°C° 0 mm 1 mps 755 mmHg 65%
    05:00 +22°C° 0 mm 1 mps 755 mmHg 65%
    06:00 +22°C° 0 mm 1 mps 755 mmHg 65%
    07:00 +23°C° 0.1 mm 1 mps 755 mmHg 65%
    08:00 +24°C° 0.1 mm 1 mps 755 mmHg 66%
    09:00 +25°C° 0.1 mm 1 mps 756 mmHg 66%
    10:00 +25°C° 0.2 mm 1 mps 756 mmHg 65%
    11:00 +26°C° 0.2 mm 1 mps 755 mmHg 64%
    12:00 +27°C° 0.2 mm 1 mps 755 mmHg 63%
    13:00 +26°C° 0.4 mm 1 mps 755 mmHg 67%
    14:00 +26°C° 0.4 mm 1 mps 755 mmHg 71%
    15:00 +25°C° 0.4 mm 1 mps 754 mmHg 75%
    16:00 +25°C° 0.3 mm 1 mps 755 mmHg 76%
    17:00 +24°C° 0.3 mm 1 mps 755 mmHg 77%
    18:00 +24°C° 0.3 mm 1 mps 755 mmHg 79%
    19:00 +24°C° 0.5 mm 1 mps 755 mmHg 80%
    20:00 +24°C° 0.5 mm 1 mps 755 mmHg 81%
    21:00 +24°C° 0.5 mm 2 mps 755 mmHg 82%
    22:00 +23°C° 2.4 mm 2 mps 755 mmHg 84%
    23:00 +23°C° 2.4 mm 2 mps 755 mmHg 86%

    21 September, Friday

    Time Temperature Precipitation Wind Pressure Humidity
    00:00 +23°C° 2.4 mm 2 mps 755 mmHg 88%
    01:00 +23°C° 2.7 mm 2 mps 754 mmHg 88%
    02:00 +23°C° 2.7 mm 2 mps 754 mmHg 88%
    03:00 +23°C° 2.7 mm 2 mps 754 mmHg 88%
    04:00 +23°C° 2.3 mm 2 mps 754 mmHg 88%
    05:00 +23°C° 2.3 mm 2 mps 754 mmHg 88%
    06:00 +23°C° 2.3 mm 2 mps 754 mmHg 89%
    07:00 +23°C° 1.5 mm 2 mps 754 mmHg 89%
    08:00 +23°C° 1.5 mm 2 mps 754 mmHg 89%
    09:00 +23°C° 1.5 mm 2 mps 754 mmHg 89%
    10:00 +24°C° 0.6 mm 2 mps 753 mmHg 88%
    11:00 +24°C° 0.6 mm 2 mps 753 mmHg 87%
    12:00 +24°C° 0.6 mm 2 mps 753 mmHg 86%
    13:00 +25°C° 0.3 mm 2 mps 752 mmHg 85%
    14:00 +25°C° 0.3 mm 2 mps 752 mmHg 85%
    15:00 +25°C° 0.3 mm 2 mps 751 mmHg 84%
    16:00 +25°C° 0.3 mm 2 mps 751 mmHg 85%
    17:00 +25°C° 0.3 mm 2 mps 751 mmHg 86%
    18:00 +25°C° 0.3 mm 2 mps 752 mmHg 88%
    19:00 +25°C° 0.2 mm 2 mps 752 mmHg 88%
    20:00 +25°C° 0.2 mm 2 mps 752 mmHg 89%
    21:00 +25°C° 0.2 mm 2 mps 752 mmHg 90%
    22:00 +25°C° 0.5 mm 1 mps 752 mmHg 91%
    23:00 +25°C° 0.5 mm 1 mps 751 mmHg 92%

    22 September, Saturday

    Time Temperature Precipitation Wind Pressure Humidity
    00:00 +25°C° 0.5 mm 1 mps 751 mmHg 92%
    01:00 +25°C° 0.6 mm 1 mps 751 mmHg 93%
    02:00 +25°C° 0.6 mm 1 mps 750 mmHg 94%
    03:00 +25°C° 0.6 mm 1 mps 750 mmHg 94%
    04:00 +25°C° 0.6 mm 1 mps 751 mmHg 94%
    05:00 +25°C° 0.6 mm 1 mps 751 mmHg 95%
    06:00 +26°C° 0.6 mm 1 mps 751 mmHg 95%
    07:00 +26°C° 0.6 mm 1 mps 751 mmHg 94%
    08:00 +26°C° 0.6 mm 1 mps 752 mmHg 93%
    09:00 +26°C° 0.6 mm 1 mps 752 mmHg 91%
    10:00 +27°C° 0.1 mm 1 mps 752 mmHg 86%
    11:00 +27°C° 0.1 mm 1 mps 752 mmHg 81%
    12:00 +28°C° 0.1 mm 1 mps 753 mmHg 75%
    13:00 +29°C° 0 mm 1 mps 752 mmHg 69%
    14:00 +30°C° 0 mm 2 mps 752 mmHg 64%
    15:00 +31°C° 0 mm 2 mps 752 mmHg 58%
    16:00 +30°C° 0 mm 2 mps 752 mmHg 63%
    17:00 +28°C° 0 mm 2 mps 753 mmHg 68%
    18:00 +27°C° 0 mm 2 mps 753 mmHg 73%
    19:00 +26°C° 0 mm 2 mps 753 mmHg 75%
    20:00 +26°C° 0 mm 2 mps 754 mmHg 77%
    21:00 +25°C° 0 mm 2 mps 754 mmHg 79%
    22:00 +25°C° 0 mm 2 mps 754 mmHg 81%
    23:00 +24°C° 0 mm 2 mps 754 mmHg 82%

    23 September, Sunday

    Time Temperature Precipitation Wind Pressure Humidity
    00:00 +23°C° 0 mm 2 mps 754 mmHg 83%
    01:00 +23°C° 0 mm 2 mps 754 mmHg 83%
    02:00 +23°C° 0 mm 2 mps 754 mmHg 83%
    03:00 +23°C° 0 mm 2 mps 754 mmHg 82%
    04:00 +21°C° 0 mm 2 mps 755 mmHg 82%
    05:00 +21°C° 0 mm 2 mps 755 mmHg 82%
    06:00 +21°C° 0 mm 2 mps 755 mmHg 81%
    07:00 +24°C° 0 mm 1 mps 755 mmHg 73%
    08:00 +26°C° 0 mm 1 mps 755 mmHg 65%
    09:00 +28°C° 0 mm 1 mps 756 mmHg 56%
    10:00 +29°C° 0 mm 1 mps 755 mmHg 49%
    11:00 +30°C° 0 mm 1 mps 755 mmHg 42%
    12:00 +31°C° 0 mm 1 mps 755 mmHg 34%
    13:00 +31°C° 0 mm 1 mps 754 mmHg 34%
    14:00 +31°C° 0 mm 1 mps 754 mmHg 33%
    15:00 +31°C° 0 mm 1 mps 754 mmHg 32%
    16:00 +30°C° 0 mm 1 mps 754 mmHg 35%
    17:00 +28°C° 0 mm 1 mps 754 mmHg 39%
    18:00 +26°C° 0 mm 1 mps 754 mmHg 43%
    19:00 +26°C° 0 mm 1 mps 755 mmHg 44%
    20:00 +26°C° 0 mm 1 mps 755 mmHg 45%
    21:00 +25°C° 0 mm 1 mps 755 mmHg 46%
    22:00 +25°C° 0 mm 1 mps 755 mmHg 47%
    23:00 +24°C° 0 mm 1 mps 755 mmHg 47%
    Show more